Time,TemperatureF,DewpointF,PressureIn,WindDirection,WindDirectionDegrees,WindSpeedMPH,WindSpeedGustMPH,Humidity,HourlyPrecipIn,Conditions,Clouds,dailyrainin,SolarRadiationWatts/m^2,SoftwareType,DateUTC
2013-03-26 00:12:00,74.0,64.0,30.02,ENE,57,9.0,17.0,71,0.00,,,0.00,0.000000,,2013-03-26 10:12:00,
2013-03-26 00:22:00,74.0,64.0,30.02,ENE,57,9.0,17.0,71,0.00,,,0.00,0.000000,,2013-03-26 10:22:00,
2013-03-26 00:32:00,74.0,64.0,30.02,ENE,57,9.0,17.0,71,0.00,,,0.00,0.000000,,2013-03-26 10:32:00,
2013-03-26 00:42:00,74.0,64.0,30.02,ENE,57,9.0,17.0,71,0.00,,,0.00,0.000000,,2013-03-26 10:42:00,
2013-03-26 00:52:00,74.0,64.0,30.02,ENE,57,9.0,17.0,71,0.00,,,0.00,0.000000,,2013-03-26 10:52:00,
2013-03-26 01:12:00,72.0,62.0,30.01,ENE,62,8.0,17.0,71,0.00,,,0.00,0.000000,,2013-03-26 11:12:00,
2013-03-26 01:22:00,72.0,62.0,30.01,ENE,62,8.0,17.0,71,0.00,,,0.00,0.000000,,2013-03-26 11:22:00,
2013-03-26 01:32:00,72.0,62.0,30.01,ENE,62,8.0,17.0,71,0.00,,,0.00,0.000000,,2013-03-26 11:32:00,
2013-03-26 01:42:00,72.0,62.0,30.01,ENE,62,8.0,17.0,71,0.00,,,0.00,0.000000,,2013-03-26 11:42:00,
2013-03-26 01:51:00,72.0,62.0,30.01,ENE,62,8.0,17.0,71,0.00,,,0.00,0.000000,,2013-03-26 11:51:00,
2013-03-26 02:21:00,73.0,63.0,29.99,NE,53,11.0,18.0,71,0.00,,,0.00,0.000000,,2013-03-26 12:21:00,
2013-03-26 02:32:00,73.0,63.0,29.99,NE,53,11.0,18.0,71,0.00,,,0.00,0.000000,,2013-03-26 12:32:00,
2013-03-26 02:42:00,73.0,63.0,29.99,NE,53,11.0,18.0,71,0.00,,,0.00,0.000000,,2013-03-26 12:42:00,
2013-03-26 02:52:00,73.0,63.0,29.99,NE,53,11.0,18.0,71,0.00,,,0.00,0.000000,,2013-03-26 12:52:00,
2013-03-26 03:22:00,73.0,64.0,29.98,ENE,60,9.0,16.0,73,0.00,,,0.00,0.000000,,2013-03-26 13:22:00,
2013-03-26 03:32:00,73.0,64.0,29.98,ENE,60,9.0,16.0,73,0.00,,,0.00,0.000000,,2013-03-26 13:32:00,
2013-03-26 03:42:00,73.0,64.0,29.98,ENE,60,9.0,16.0,73,0.00,,,0.00,0.000000,,2013-03-26 13:42:00,
2013-03-26 03:52:00,73.0,64.0,29.98,ENE,60,9.0,16.0,73,0.00,,,0.00,0.000000,,2013-03-26 13:52:00,
2013-03-26 04:11:00,71.0,62.0,29.97,NE,52,11.0,17.0,73,0.00,,,0.00,0.000000,,2013-03-26 14:11:00,
2013-03-26 04:22:00,71.0,62.0,29.97,NE,52,11.0,17.0,73,0.00,,,0.00,0.000000,,2013-03-26 14:22:00,
2013-03-26 04:32:00,71.0,62.0,29.97,NE,52,11.0,17.0,73,0.00,,,0.00,0.000000,,2013-03-26 14:32:00,
2013-03-26 04:42:00,71.0,62.0,29.97,NE,52,11.0,17.0,73,0.00,,,0.00,0.000000,,2013-03-26 14:42:00,
2013-03-26 04:51:00,71.0,62.0,29.97,NE,52,11.0,17.0,73,0.00,,,0.00,0.000000,,2013-03-26 14:51:00,
2013-03-26 05:22:00,71.0,62.0,29.97,NE,49,10.0,16.0,73,0.00,,,0.00,0.000000,,2013-03-26 15:22:00,
2013-03-26 05:33:00,71.0,62.0,29.97,NE,49,10.0,16.0,73,0.00,,,0.00,0.000000,,2013-03-26 15:33:00,
2013-03-26 05:42:00,71.0,62.0,29.97,NE,49,10.0,16.0,73,0.00,,,0.00,0.000000,,2013-03-26 15:42:00,
2013-03-26 05:52:00,71.0,62.0,29.97,NE,49,10.0,16.0,73,0.00,,,0.00,0.000000,,2013-03-26 15:52:00,
2013-03-26 05:53:00,71.0,62.0,30.00,NE,51,7.0,16.0,74,0.00,,,0.00,0.000000,,2013-03-26 15:53:00,
2013-03-26 06:12:00,71.0,62.0,30.00,NE,51,7.0,16.0,74,0.00,,,0.00,0.000000,,2013-03-26 16:12:00,
2013-03-26 06:22:00,71.0,62.0,30.00,NE,51,7.0,16.0,74,0.00,,,0.00,0.000000,,2013-03-26 16:22:00,
2013-03-26 06:32:00,71.0,62.0,30.00,NE,51,7.0,16.0,74,0.00,,,0.00,0.000000,,2013-03-26 16:32:00,
2013-03-26 06:42:00,71.0,62.0,30.00,NE,51,7.0,16.0,74,0.00,,,0.00,0.000000,,2013-03-26 16:42:00,
2013-03-26 07:22:00,73.0,63.0,30.02,NE,52,8.0,16.0,70,0.00,,,0.00,12.000000,,2013-03-26 17:22:00,
2013-03-26 07:32:00,73.0,63.0,30.02,NE,52,8.0,16.0,70,0.00,,,0.00,12.000000,,2013-03-26 17:32:00,
2013-03-26 07:42:00,73.0,63.0,30.02,NE,52,8.0,16.0,70,0.00,,,0.00,12.000000,,2013-03-26 17:42:00,
2013-03-26 07:52:00,73.0,63.0,30.02,NE,52,8.0,16.0,70,0.00,,,0.00,12.000000,,2013-03-26 17:52:00,
2013-03-26 08:23:00,77.0,63.0,30.04,NE,46,11.0,19.0,63,0.00,,,0.00,189.000000,,2013-03-26 18:23:00,
2013-03-26 08:33:00,77.0,63.0,30.04,NE,46,11.0,19.0,63,0.00,,,0.00,189.000000,,2013-03-26 18:33:00,
2013-03-26 08:42:00,77.0,63.0,30.04,NE,46,11.0,19.0,63,0.00,,,0.00,189.000000,,2013-03-26 18:42:00,
2013-03-26 08:52:00,77.0,63.0,30.04,NE,46,11.0,19.0,63,0.00,,,0.00,189.000000,,2013-03-26 18:52:00,
2013-03-26 09:22:00,77.0,64.0,30.06,ENE,77,15.0,21.0,64,0.00,,,0.00,490.000000,,2013-03-26 19:22:00,
2013-03-26 09:32:00,77.0,64.0,30.06,ENE,77,15.0,21.0,64,0.00,,,0.00,490.000000,,2013-03-26 19:32:00,
2013-03-26 09:42:00,77.0,64.0,30.06,ENE,77,15.0,21.0,64,0.00,,,0.00,490.000000,,2013-03-26 19:42:00,
2013-03-26 09:52:00,77.0,64.0,30.06,ENE,77,15.0,21.0,64,0.00,,,0.00,490.000000,,2013-03-26 19:52:00,
2013-03-26 10:22:00,78.0,64.0,30.06,ENE,78,17.0,26.0,62,0.00,,,0.00,751.000000,,2013-03-26 20:22:00,
2013-03-26 10:32:00,78.0,64.0,30.06,ENE,78,17.0,26.0,62,0.00,,,0.00,751.000000,,2013-03-26 20:32:00,
2013-03-26 10:42:00,78.0,64.0,30.06,ENE,78,17.0,26.0,62,0.00,,,0.00,751.000000,,2013-03-26 20:42:00,
2013-03-26 10:52:00,78.0,64.0,30.06,ENE,78,17.0,26.0,62,0.00,,,0.00,751.000000,,2013-03-26 20:52:00,
2013-03-26 11:22:00,80.0,63.0,30.06,East,80,15.0,25.0,56,0.00,,,0.00,980.000000,,2013-03-26 21:22:00,
2013-03-26 11:32:00,80.0,63.0,30.06,East,80,15.0,25.0,56,0.00,,,0.00,980.000000,,2013-03-26 21:32:00,
2013-03-26 11:42:00,80.0,63.0,30.06,East,80,15.0,25.0,56,0.00,,,0.00,980.000000,,2013-03-26 21:42:00,
2013-03-26 12:22:00,82.0,65.0,30.04,ENE,78,15.0,25.0,56,0.00,,,0.00,1106.000000,,2013-03-26 22:22:00,
2013-03-26 12:33:00,82.0,65.0,30.04,ENE,78,15.0,25.0,56,0.00,,,0.00,1106.000000,,2013-03-26 22:33:00,
2013-03-26 12:42:00,82.0,65.0,30.04,ENE,78,15.0,25.0,56,0.00,,,0.00,1106.000000,,2013-03-26 22:42:00,
2013-03-26 12:52:00,82.0,65.0,30.04,ENE,78,15.0,25.0,56,0.00,,,0.00,1106.000000,,2013-03-26 22:52:00,
2013-03-26 13:10:00,80.0,63.0,30.02,ENE,71,17.0,26.0,57,0.00,,,0.00,1177.000000,,2013-03-26 23:10:00,
2013-03-26 13:22:00,80.0,63.0,30.02,ENE,71,17.0,26.0,57,0.00,,,0.00,1177.000000,,2013-03-26 23:22:00,
2013-03-26 13:31:00,80.0,63.0,30.02,ENE,71,17.0,26.0,57,0.00,,,0.00,1177.000000,,2013-03-26 23:31:00,
2013-03-26 13:42:00,80.0,63.0,30.02,ENE,71,17.0,26.0,57,0.00,,,0.00,1177.000000,,2013-03-26 23:42:00,
2013-03-26 13:51:00,80.0,63.0,30.02,ENE,71,17.0,26.0,57,0.00,,,0.00,1177.000000,,2013-03-26 23:51:00,
2013-03-26 14:12:00,78.0,62.0,30.00,East,93,15.0,25.0,59,0.00,,,0.00,866.000000,,2013-03-27 00:12:00,
2013-03-26 14:22:00,78.0,62.0,30.00,East,93,15.0,25.0,59,0.00,,,0.00,866.000000,,2013-03-27 00:22:00,
2013-03-26 14:32:00,78.0,62.0,30.00,East,93,15.0,25.0,59,0.00,,,0.00,866.000000,,2013-03-27 00:32:00,
2013-03-26 14:42:00,78.0,62.0,30.00,East,93,15.0,25.0,59,0.00,,,0.00,866.000000,,2013-03-27 00:42:00,
2013-03-26 14:52:00,78.0,62.0,30.00,East,93,15.0,25.0,59,0.00,,,0.00,866.000000,,2013-03-27 00:52:00,
2013-03-26 15:12:00,81.0,64.0,29.99,West,260,5.0,26.0,56,0.00,,,0.00,558.000000,,2013-03-27 01:12:00,
2013-03-26 15:22:00,81.0,64.0,29.99,West,260,5.0,26.0,56,0.00,,,0.00,558.000000,,2013-03-27 01:22:00,
2013-03-26 15:32:00,81.0,64.0,29.99,West,260,5.0,26.0,56,0.00,,,0.00,558.000000,,2013-03-27 01:32:00,
2013-03-26 15:42:00,81.0,64.0,29.99,West,260,5.0,26.0,56,0.00,,,0.00,558.000000,,2013-03-27 01:42:00,
2013-03-26 15:52:00,81.0,64.0,29.99,West,260,5.0,26.0,56,0.00,,,0.00,558.000000,,2013-03-27 01:52:00,
2013-03-26 16:12:00,81.0,64.0,29.99,WSW,256,6.0,15.0,56,0.00,,,0.00,522.000000,,2013-03-27 02:12:00,
2013-03-26 16:22:00,81.0,64.0,29.99,WSW,256,6.0,15.0,56,0.00,,,0.00,522.000000,,2013-03-27 02:22:00,
2013-03-26 16:32:00,81.0,64.0,29.99,WSW,256,6.0,15.0,56,0.00,,,0.00,522.000000,,2013-03-27 02:32:00,
2013-03-26 16:42:00,81.0,64.0,29.99,WSW,256,6.0,15.0,56,0.00,,,0.00,522.000000,,2013-03-27 02:42:00,
2013-03-26 16:52:00,81.0,64.0,29.99,WSW,256,6.0,15.0,56,0.00,,,0.00,522.000000,,2013-03-27 02:52:00,
2013-03-26 17:22:00,79.0,63.0,29.99,WSW,238,6.0,11.0,59,0.00,,,0.00,366.000000,,2013-03-27 03:22:00,
2013-03-26 17:33:00,79.0,63.0,29.99,WSW,238,6.0,11.0,59,0.00,,,0.00,366.000000,,2013-03-27 03:33:00,
2013-03-26 17:42:00,79.0,63.0,29.99,WSW,238,6.0,11.0,59,0.00,,,0.00,366.000000,,2013-03-27 03:42:00,
2013-03-26 17:52:00,79.0,63.0,29.99,WSW,238,6.0,11.0,59,0.00,,,0.00,366.000000,,2013-03-27 03:52:00,
2013-03-26 18:23:00,79.0,65.0,30.00,SSW,198,4.0,8.0,63,0.00,,,0.00,244.000000,,2013-03-27 04:23:00,
2013-03-26 18:33:00,79.0,65.0,30.00,SSW,198,4.0,8.0,63,0.00,,,0.00,244.000000,,2013-03-27 04:33:00,
2013-03-26 18:42:00,79.0,65.0,30.00,SSW,198,4.0,8.0,63,0.00,,,0.00,244.000000,,2013-03-27 04:42:00,
2013-03-26 18:52:00,79.0,65.0,30.00,SSW,198,4.0,8.0,63,0.00,,,0.00,244.000000,,2013-03-27 04:52:00,
2013-03-26 19:12:00,75.0,64.0,30.01,West,264,4.0,7.0,68,0.00,,,0.00,29.000000,,2013-03-27 05:12:00,
2013-03-26 19:22:00,75.0,64.0,30.01,West,264,4.0,7.0,68,0.00,,,0.00,29.000000,,2013-03-27 05:22:00,
2013-03-26 19:32:00,75.0,64.0,30.01,West,264,4.0,7.0,68,0.00,,,0.00,29.000000,,2013-03-27 05:32:00,
2013-03-26 19:42:00,75.0,64.0,30.01,West,264,4.0,7.0,68,0.00,,,0.00,29.000000,,2013-03-27 05:42:00,
2013-03-26 19:52:00,75.0,64.0,30.01,West,264,4.0,7.0,68,0.00,,,0.00,29.000000,,2013-03-27 05:52:00,
2013-03-26 20:12:00,75.0,64.0,30.02,WSW,257,5.0,7.0,69,0.00,,,0.00,0.000000,,2013-03-27 06:12:00,
2013-03-26 20:22:00,75.0,64.0,30.02,WSW,257,5.0,7.0,69,0.00,,,0.00,0.000000,,2013-03-27 06:22:00,
2013-03-26 20:32:00,75.0,64.0,30.02,WSW,257,5.0,7.0,69,0.00,,,0.00,0.000000,,2013-03-27 06:32:00,
2013-03-26 20:42:00,75.0,64.0,30.02,WSW,257,5.0,7.0,69,0.00,,,0.00,0.000000,,2013-03-27 06:42:00,
2013-03-26 20:52:00,75.0,64.0,30.02,WSW,257,5.0,7.0,69,0.00,,,0.00,0.000000,,2013-03-27 06:52:00,
2013-03-26 20:53:00,74.0,65.0,30.05,SE,146,2.0,8.0,73,0.00,,,0.00,0.000000,,2013-03-27 06:53:00,
2013-03-26 21:12:00,74.0,65.0,30.05,SE,146,2.0,8.0,73,0.00,,,0.00,0.000000,,2013-03-27 07:12:00,
2013-03-26 21:22:00,74.0,65.0,30.05,SE,146,2.0,8.0,73,0.00,,,0.00,0.000000,,2013-03-27 07:22:00,
2013-03-26 21:32:00,74.0,65.0,30.05,SE,146,2.0,8.0,73,0.00,,,0.00,0.000000,,2013-03-27 07:32:00,
2013-03-26 21:42:00,74.0,65.0,30.05,SE,146,2.0,8.0,73,0.00,,,0.00,0.000000,,2013-03-27 07:42:00,
2013-03-26 22:12:00,72.0,64.0,30.05,North,11,4.0,8.0,76,0.00,,,0.00,0.000000,,2013-03-27 08:12:00,
2013-03-26 22:22:00,72.0,64.0,30.05,North,11,4.0,8.0,76,0.00,,,0.00,0.000000,,2013-03-27 08:22:00,
2013-03-26 22:32:00,72.0,64.0,30.05,North,11,4.0,8.0,76,0.00,,,0.00,0.000000,,2013-03-27 08:32:00,
2013-03-26 22:43:00,72.0,64.0,30.05,North,11,4.0,8.0,76,0.00,,,0.00,0.000000,,2013-03-27 08:43:00,
2013-03-26 22:51:00,72.0,64.0,30.05,North,11,4.0,8.0,76,0.00,,,0.00,0.000000,,2013-03-27 08:51:00,
2013-03-26 23:12:00,73.0,63.0,30.04,NE,36,6.0,12.0,71,0.00,,,0.00,0.000000,,2013-03-27 09:12:00,
2013-03-26 23:22:00,73.0,63.0,30.04,NE,36,6.0,12.0,71,0.00,,,0.00,0.000000,,2013-03-27 09:22:00,
2013-03-26 23:32:00,73.0,63.0,30.04,NE,36,6.0,12.0,71,0.00,,,0.00,0.000000,,2013-03-27 09:32:00,
2013-03-26 23:42:00,73.0,63.0,30.04,NE,36,6.0,12.0,71,0.00,,,0.00,0.000000,,2013-03-27 09:42:00,
2013-03-26 23:52:00,73.0,63.0,30.04,NE,36,6.0,12.0,71,0.00,,,0.00,0.000000,,2013-03-27 09:52:00,